TimeEDT,TemperatureF,Dew PointF,Humidity,Sea Level PressureIn,VisibilityMPH,Wind Direction,Wind SpeedMPH,Gust SpeedMPH,PrecipitationIn,Events,Conditions,WindDirDegrees,DateUTC
12:52 AM,59.0,50.0,72,30.14,10.0,SSE,3.5,-,N/A,,Clear,150,2013-09-10 04:52:00
1:52 AM,59.0,51.1,75,30.15,10.0,ESE,5.8,-,N/A,,Clear,120,2013-09-10 05:52:00
2:52 AM,60.1,52.0,75,30.15,10.0,SSW,3.5,-,N/A,,Clear,200,2013-09-10 06:52:00
3:50 AM,62.6,53.6,72,30.14,10.0,SE,5.8,-,N/A,,Mostly Cloudy,140,2013-09-10 07:50:00
3:52 AM,62.1,53.1,72,30.14,10.0,SE,5.8,-,N/A,,Mostly Cloudy,140,2013-09-10 07:52:00
4:52 AM,62.1,54.0,75,30.13,10.0,SSE,6.9,-,N/A,,Overcast,150,2013-09-10 08:52:00
5:52 AM,63.0,55.0,75,30.13,10.0,SE,5.8,-,N/A,,Overcast,140,2013-09-10 09:52:00
6:52 AM,63.0,57.0,81,30.14,10.0,SSE,4.6,-,N/A,,Overcast,160,2013-09-10 10:52:00
7:45 AM,64.4,57.2,77,30.13,10.0,South,6.9,-,N/A,,Overcast,170,2013-09-10 11:45:00
7:52 AM,64.0,57.9,80,30.13,10.0,SSE,5.8,-,N/A,,Overcast,160,2013-09-10 11:52:00
8:52 AM,66.0,60.1,81,30.13,10.0,SSE,4.6,-,N/A,,Overcast,160,2013-09-10 12:52:00
9:52 AM,68.0,62.1,81,30.12,10.0,SSW,8.1,-,N/A,,Overcast,200,2013-09-10 13:52:00
10:52 AM,69.1,63.0,81,30.12,10.0,SSW,8.1,16.1,N/A,,Overcast,210,2013-09-10 14:52:00
11:41 AM,68.0,64.4,88,30.06,4.0,SSE,9.2,-,0.06,Rain,Rain,160,2013-09-10 15:41:00
11:45 AM,68.0,64.4,88,30.05,5.0,South,8.1,-,0.06,Rain,Rain,170,2013-09-10 15:45:00
11:52 AM,68.0,64.9,90,30.06,8.0,South,8.1,19.6,0.07,Rain,Light Rain,170,2013-09-10 15:52:00
12:52 PM,70.0,64.9,84,30.06,10.0,Calm,Calm,-,0.01,,Overcast,0,2013-09-10 16:52:00
1:52 PM,72.0,66.0,81,30.05,10.0,Calm,Calm,-,N/A,,Overcast,0,2013-09-10 17:52:00
2:36 PM,75.2,66.2,73,30.06,10.0,WSW,9.2,-,N/A,,Mostly Cloudy,240,2013-09-10 18:36:00
2:52 PM,77.0,68.0,74,30.05,10.0,SW,6.9,-,N/A,,Scattered Clouds,230,2013-09-10 18:52:00
3:52 PM,77.0,66.9,71,30.05,10.0,SW,5.8,-,N/A,,Mostly Cloudy,230,2013-09-10 19:52:00
4:30 PM,78.8,66.2,65,30.05,10.0,SW,6.9,-,0.01,,Overcast,230,2013-09-10 20:30:00
4:52 PM,78.1,66.9,68,30.04,10.0,SSW,10.4,-,0.01,,Mostly Cloudy,210,2013-09-10 20:52:00
5:33 PM,75.2,66.2,73,30.05,10.0,South,8.1,-,N/A,,Mostly Cloudy,190,2013-09-10 21:33:00
5:52 PM,75.9,66.9,74,30.04,10.0,SSW,6.9,-,N/A,,Overcast,200,2013-09-10 21:52:00
6:52 PM,75.0,68.0,79,30.05,8.0,South,4.6,-,N/A,,Overcast,190,2013-09-10 22:52:00
7:52 PM,75.0,69.1,82,30.06,8.0,Calm,Calm,-,N/A,,Overcast,0,2013-09-10 23:52:00
8:52 PM,75.0,69.1,82,30.08,8.0,Calm,Calm,-,N/A,,Overcast,0,2013-09-11 00:52:00
9:52 PM,73.9,69.1,85,30.09,8.0,SSE,3.5,-,N/A,,Overcast,150,2013-09-11 01:52:00
10:52 PM,72.0,69.1,91,30.08,7.0,South,3.5,-,N/A,,Scattered Clouds,170,2013-09-11 02:52:00
11:52 PM,71.1,69.1,93,30.07,5.0,South,3.5,-,N/A,,Clear,170,2013-09-11 03:52:00